[[{"header":{"parameterUnit":"m.s-1","parameterCategory":1,"la1":30.2991,"la2":30.254,"lo1":-89.0895,"lo2":-89.0444,"dy":0.0017,"dx":0.0017,"nx":28,"ny":28,"refTime":"2024-03-15T09:00:00:Z","depth":0,"parameterNumber":2,"parameterNumberName":"U-component_of_WINDS"},"data":[0,0,0,0,0,0,0,0,0,0,0,0,0,0,0,0,0,0,0,0,0,0,0,0,0,0,0,0,0,0,0,0,0,0,0,0,0,0,0,0,0,0,0,0,0,0,0,0,0,0,0,0,0,0,0,0,0,0,-2.6136,-2.6137,0,-2.6196,-2.6197,-2.6197,-2.6186,-2.6185,-2.6184,-2.6183,-2.6246,-2.6248,-2.6251,0,0,0,0,0,0,0,0,0,0,0,0,0,-2.6013,-2.6015,-2.6136,-2.6137,-2.6137,-2.6196,-2.6197,-2.6198,-2.6187,-2.6185,-2.6184,-2.6183,-2.6245,-2.6248,-2.6251,0,0,0,0,0,0,0,0,0,0,0,0,0,-2.6069,-2.6016,-2.6136,-2.6139,-2.614,-2.6196,-2.6197,-2.6198,-2.6187,-2.6185,-2.6184,-2.6182,-2.6244,-2.6248,-2.6252,-2.6308,0,0,-2.6264,-2.6266,0,0,0,0,0,0,0,0,-2.6066,-2.6074,-2.6138,-2.6139,-2.614,-2.6182,-2.6176,-2.6235,-2.6187,-2.6169,-2.6183,-2.6181,-2.6226,-2.6231,-2.6246,-2.6311,-2.6314,-2.6264,-2.6267,-2.6268,-2.6269,0,0,0,0,0,0,0,-2.6062,-2.6071,-2.616,-2.6139,-2.614,-2.6138,-2.6144,-2.6187,-2.6206,-2.6171,-2.617,-2.6177,-2.6226,-2.6242,-2.6248,-2.6315,-2.6264,-2.6268,-2.627,-2.6272,-2.643,-2.6432,0,0,0,0,0,0,-2.6057,-2.6068,-2.6158,-2.6162,-2.6098,-2.6141,-2.6148,-2.617,-2.6205,-2.6209,-2.6178,-2.6176,-2.6236,-2.6243,-2.625,-2.6318,-2.6268,-2.6272,-2.6274,-2.6428,-2.643,-2.6432,0,0,0,0,0,0,-2.6054,-2.6065,-2.6155,-2.6115,-2.6126,-2.6145,-2.617,-2.6172,-2.6188,-2.6211,-2.6215,-2.6191,-2.6235,-2.6244,-2.6294,-2.632,-2.6274,-2.6278,-2.6426,-2.6429,-2.6431,-2.6455,0,0,0,0,0,0,-2.6051,-2.6064,-2.6086,-2.6115,-2.6128,-2.6198,-2.6172,-2.6175,-2.6195,-2.6193,-2.6224,-2.6228,-2.6235,-2.6288,-2.6298,-2.6325,-2.6281,-2.6424,-2.6427,-2.643,-2.6452,-2.6458,-2.6464,0,0,0,0,0,-2.6047,-2.609,-2.6087,-2.6098,-2.6155,-2.62,-2.6207,-2.6214,-2.6197,-2.6219,-2.6234,-2.6227,-2.6316,-2.6293,-2.6304,-2.6333,-2.6422,-2.6426,-2.643,-2.6449,-2.6457,-2.6464,0,0,0,0,0,0,-2.6064,-2.6094,-2.6091,-2.6145,-2.617,-2.6198,-2.6225,-2.6222,-2.6252,-2.6249,-2.6256,-2.6263,-2.6314,-2.6328,-2.6302,-2.6389,-2.6367,-2.6373,-2.6378,-2.6385,-2.6391,-2.6386,-2.6284,0,0,0,0,0,-2.6074,-2.6107,-2.6132,-2.6178,-2.619,-2.6206,-2.6225,-2.6228,-2.6255,-2.6265,-2.6283,-2.6309,-2.6343,-2.6365,-2.6398,-2.6455,-2.6461,-2.648,-2.6486,-2.649,-2.6495,-2.6526,-2.6535,-2.6446,-2.6446,-2.6445,0,0,-2.6095,-2.6116,-2.6136,-2.6182,-2.6201,-2.6236,-2.6215,-2.6252,-2.6278,-2.6271,-2.6318,-2.6333,-2.6363,-2.6416,-2.6441,-2.643,-2.6522,-2.6496,-2.6499,-2.6502,-2.6531,-2.654,-2.6547,-2.6448,-2.6448,-2.6447,0,0,-2.615,-2.617,-2.621,-2.623,-2.626,-2.627,-2.6279,-2.6308,-2.6317,-2.6366,-2.6361,-2.6392,-2.645,-2.6471,-2.649,-2.6554,-2.6549,-2.6565,-2.6595,-2.6625,-2.6632,-2.6638,-2.666,-2.6668,-2.657,-2.657,-2.657,0,-2.6173,-2.6224,-2.6231,-2.6269,-2.6289,-2.6284,-2.6325,-2.6344,-2.6383,-2.6397,-2.6385,-2.6458,-2.6477,-2.6535,-2.6551,-2.6567,-2.6578,-2.6561,-2.663,-2.6637,-2.6643,-2.6664,-2.6672,-2.6572,-2.6572,-2.6572,-2.6571,0,-2.625,-2.6286,-2.6315,-2.6352,-2.6375,-2.6414,-2.6427,-2.6451,-2.6452,-2.6464,-2.6513,-2.6536,-2.6573,-2.6588,-2.659,-2.6646,-2.6639,-2.6628,-2.6605,-2.6653,-2.6673,-2.6681,-2.6574,-2.6574,-2.6573,-2.6573,0,0,-2.6317,-2.6358,-2.6368,-2.6385,-2.6418,-2.6446,-2.6485,-2.6521,-2.654,-2.6568,-2.6601,-2.665,-2.6641,-2.6662,-2.6666,-2.6693,-2.6742,-2.6679,-2.668,-2.6689,-2.6805,-2.6812,-2.6821,-2.6739,-2.6741,-2.6742,-2.6803,0,-2.6375,-2.6443,-2.645,-2.6512,-2.6545,-2.6541,-2.6575,-2.66,-2.6612,-2.6642,-2.6656,-2.6691,-2.6676,-2.6688,-2.6715,-2.673,-2.6765,-2.6726,-2.6769,-2.6771,-2.6761,-2.6832,-2.6839,-2.6895,-2.6811,-2.6812,-2.6813,0,-2.6451,-2.648,-2.6544,-2.6573,-2.6587,-2.6617,-2.6651,-2.668,-2.6707,-2.6715,-2.6738,-2.6739,-2.678,-2.6757,-2.6813,-2.6786,-2.6805,-2.6815,-2.6818,-2.6821,-2.6794,-2.6836,-2.6913,-2.6921,-2.6826,-2.6825,-2.6824,0,-2.6492,-2.6548,-2.6593,-2.6608,-2.6642,-2.6664,-2.6679,-2.6705,-2.6726,-2.6756,-2.677,-2.6804,-2.6823,-2.6849,-2.686,-2.6842,-2.6916,-2.6893,-2.6922,-2.6922,-2.6937,-2.6935,-2.7016,-2.6951,-2.6951,-2.6951,-2.695,0,-2.6555,-2.6595,-2.6612,-2.664,-2.6684,-2.6693,-2.6736,-2.6751,-2.6774,-2.6805,-2.6805,-2.6834,-2.6847,-2.6878,-2.6887,-2.6932,-2.6941,-2.6947,-2.6949,-2.6947,-2.6945,-2.6958,-2.6954,-2.6953,-2.6952,-2.6952,-2.6952,0,-2.6608,-2.6621,-2.6671,-2.6699,-2.6707,-2.6738,-2.6763,-2.679,-2.6803,-2.6842,-2.6852,-2.6871,-2.6908,-2.6921,-2.6966,-2.6972,-2.7024,-2.7023,-2.7014,-2.7014,-2.7042,-2.7039,-2.7133,-2.7146,-2.7073,-2.7074,-2.7074,0,-2.6647,-2.6677,-2.6709,-2.6729,-2.6745,-2.6778,-2.68,-2.681,-2.6832,-2.6866,-2.6889,-2.6926,-2.6956,-2.7015,-2.7033,-2.7068,-2.7067,-2.7098,-2.7072,-2.7069,-2.7066,-2.7064,-2.7066,-2.7102,-2.7103,-2.7103,-2.7104,0,-2.6714,-2.6719,-2.675,-2.6783,-2.6808,-2.6835,-2.6861,-2.6878,-2.6892,-2.6918,-2.6955,-2.6978,-2.7024,-2.706,-2.7096,-2.7112,-2.711,-2.7112,-2.712,-2.7117,-2.711,-2.7114,-2.7026,-2.7109,-2.7109,-2.7108,-2.7108,-2.7108,-2.676,-2.6786,-2.6813,-2.6847,-2.6868,-2.6892,-2.6919,-2.6934,-2.6965,-2.7003,-2.7008,-2.7048,-2.7075,-2.7123,-2.7141,-2.7173,-2.7164,-2.7177,-2.718,-2.7182,-2.7184,-2.7107,-2.7179,-2.7179,-2.7179,-2.7179,-2.7179,0,-2.6826,-2.6843,-2.6875,-2.6911,-2.6938,-2.6934,-2.6962,-2.6985,-2.702,-2.7046,-2.7075,-2.7118,-2.7153,-2.7175,-2.7211,-2.7232,-2.7232,-2.7241,-2.7239,-2.7242,-2.719,-2.7178,-2.724,-2.724,-2.724,-2.724,-2.724,-2.724,-2.6864,-2.6908,-2.6916,-2.6971,-2.6988,-2.7026,-2.7043,-2.7066,-2.7086,-2.7134,-2.7163,-2.7177,-2.7201,-2.7238,-2.727,-2.7276,-2.7289,-2.7298,-2.7303,-2.7253,-2.7246,-2.724,-2.7229,-2.7301,-2.7301,-2.7353,-2.7353,-2.7353]},{"header":{"parameterUnit":"m.s-1","parameterCategory":1,"la1":30.2991,"la2":30.254,"lo1":-89.0895,"lo2":-89.0444,"dy":0.0017,"dx":0.0017,"nx":28,"ny":28,"refTime":"2024-03-15T09:00:00:Z","depth":0,"parameterNumber":3,"parameterNumberName":"V-component_of_WINDS"},"data":[0,0,0,0,0,0,0,0,0,0,0,0,0,0,0,0,0,0,0,0,0,0,0,0,0,0,0,0,0,0,0,0,0,0,0,0,0,0,0,0,0,0,0,0,0,0,0,0,0,0,0,0,0,0,0,0,0,0,3.1022,3.1023,0,3.1076,3.1077,3.1077,3.1083,3.1082,3.1081,3.1081,3.1135,3.1137,3.1139,0,0,0,0,0,0,0,0,0,0,0,0,0,3.0923,3.0925,3.1022,3.1023,3.1023,3.1076,3.1077,3.1078,3.1083,3.1082,3.1081,3.1081,3.1134,3.1137,3.1139,0,0,0,0,0,0,0,0,0,0,0,0,0,3.097,3.0925,3.1022,3.1032,3.1034,3.1076,3.1077,3.1078,3.1083,3.1082,3.1081,3.108,3.1134,3.1136,3.1139,3.1175,0,0,3.1148,3.115,0,0,0,0,0,0,0,0,3.0968,3.0974,3.103,3.1032,3.1033,3.1072,3.1062,3.111,3.1083,3.1064,3.1081,3.108,3.1115,3.1119,3.1131,3.1177,3.118,3.1149,3.115,3.1152,3.1153,0,0,0,0,0,0,0,3.0964,3.0972,3.1043,3.1031,3.1033,3.1034,3.104,3.1071,3.1093,3.1066,3.1066,3.1073,3.1115,3.1128,3.1132,3.118,3.1149,3.1151,3.1153,3.1154,3.1261,3.1262,0,0,0,0,0,0,3.0959,3.0969,3.1042,3.1045,3.0998,3.1037,3.1043,3.106,3.1093,3.1097,3.1073,3.1073,3.1124,3.1129,3.1134,3.118,3.1152,3.1155,3.1156,3.126,3.1261,3.1262,0,0,0,0,0,0,3.0957,3.0966,3.1039,3.1007,3.1017,3.1039,3.1058,3.1062,3.1075,3.1099,3.1103,3.1082,3.1123,3.113,3.1165,3.1182,3.1156,3.1159,3.1258,3.126,3.1262,3.127,0,0,0,0,0,0,3.0954,3.0965,3.0978,3.1007,3.1018,3.107,3.1059,3.1063,3.108,3.108,3.1108,3.1112,3.1123,3.1161,3.1168,3.1185,3.1161,3.1257,3.1259,3.1261,3.1268,3.1272,3.1275,0,0,0,0,0,3.0951,3.0978,3.0979,3.0988,3.1036,3.1071,3.1077,3.1089,3.1081,3.1095,3.1111,3.1111,3.1178,3.1164,3.1173,3.1191,3.1256,3.1259,3.1261,3.1267,3.1271,3.1275,0,0,0,0,0,0,3.0949,3.0982,3.0983,3.1021,3.1043,3.1071,3.1089,3.1092,3.1117,3.1115,3.1129,3.1135,3.1171,3.1184,3.1168,3.1228,3.1217,3.1221,3.1218,3.1222,3.1225,3.1222,3.1163,0,0,0,0,0,3.0953,3.0979,3.1006,3.1036,3.1047,3.1066,3.1082,3.109,3.1113,3.1122,3.114,3.1163,3.1189,3.1206,3.1231,3.127,3.1277,3.1287,3.129,3.1292,3.1296,3.132,3.1325,3.127,3.127,3.127,0,0,3.0962,3.0983,3.0998,3.1036,3.1054,3.1081,3.1074,3.1102,3.1123,3.1126,3.1162,3.1176,3.1202,3.1239,3.1257,3.1252,3.1313,3.1295,3.1297,3.13,3.1323,3.1328,3.1333,3.1272,3.1271,3.1271,0,0,3.0992,3.1009,3.1038,3.1056,3.1084,3.1097,3.1104,3.1132,3.1143,3.1178,3.1182,3.1206,3.125,3.127,3.1285,3.1324,3.1326,3.1332,3.1348,3.1371,3.1376,3.138,3.1396,3.1401,3.1335,3.1335,3.1335,0,3.0999,3.104,3.1052,3.1081,3.1098,3.1104,3.1133,3.115,3.1185,3.1197,3.1191,3.1249,3.1266,3.131,3.1319,3.1331,3.134,3.1329,3.1374,3.1378,3.1382,3.1398,3.1403,3.1336,3.1336,3.1336,3.1336,0,3.1048,3.1076,3.1096,3.1131,3.115,3.1179,3.1196,3.1215,3.1221,3.1234,3.1271,3.1293,3.1324,3.1334,3.134,3.1379,3.1376,3.1371,3.136,3.1388,3.1403,3.1409,3.1337,3.1337,3.1337,3.1336,0,0,3.1079,3.1121,3.1128,3.1145,3.1177,3.1199,3.1229,3.126,3.1276,3.13,3.1326,3.1364,3.1362,3.1379,3.1387,3.1407,3.1439,3.1401,3.1402,3.1409,3.1487,3.1491,3.1498,3.144,3.1441,3.1442,3.1485,0,3.1114,3.1168,3.118,3.1227,3.1254,3.126,3.1286,3.1309,3.1323,3.1348,3.1362,3.1391,3.1383,3.1395,3.1414,3.1431,3.1455,3.1428,3.1466,3.1467,3.1461,3.1505,3.151,3.1549,3.1491,3.1492,3.1493,0,3.1162,3.1189,3.1238,3.1269,3.1281,3.1304,3.1335,3.1358,3.1384,3.1393,3.1414,3.142,3.1452,3.1438,3.1483,3.1464,3.148,3.1491,3.1493,3.1498,3.1483,3.1514,3.1562,3.1569,3.1501,3.1501,3.15,0,3.1183,3.123,3.1267,3.1281,3.1316,3.1333,3.1349,3.1374,3.1393,3.1419,3.1432,3.1461,3.1478,3.15,3.1515,3.1503,3.1559,3.1546,3.1569,3.1568,3.1582,3.1581,3.1635,3.1588,3.1588,3.1588,3.1588,0,3.1222,3.1253,3.1277,3.13,3.1334,3.1349,3.1383,3.1398,3.1421,3.1447,3.1453,3.1478,3.1494,3.1521,3.1532,3.1569,3.1575,3.1584,3.1587,3.1585,3.1584,3.1597,3.1596,3.159,3.1589,3.1589,3.1589,0,3.1251,3.1269,3.1309,3.134,3.1349,3.1373,3.14,3.1423,3.1436,3.147,3.1478,3.15,3.1533,3.1549,3.1588,3.1596,3.1638,3.1638,3.163,3.1632,3.1654,3.1653,3.172,3.1731,3.1675,3.1675,3.1676,0,3.1276,3.13,3.1334,3.1353,3.1369,3.1398,3.1418,3.1433,3.1453,3.1486,3.1505,3.1537,3.1565,3.1616,3.1635,3.1666,3.1668,3.169,3.1673,3.1671,3.1672,3.1671,3.1675,3.1694,3.1694,3.1694,3.1695,0,3.132,3.1328,3.1356,3.1388,3.1411,3.1437,3.1462,3.1477,3.1496,3.1518,3.1552,3.1573,3.1615,3.1648,3.168,3.1696,3.17,3.17,3.1707,3.1706,3.1702,3.1707,3.1641,3.1699,3.1698,3.1698,3.1698,3.1698,3.1349,3.1372,3.14,3.1432,3.1453,3.1477,3.15,3.1518,3.1547,3.1582,3.1589,3.1625,3.1652,3.1696,3.1714,3.1742,3.1738,3.1748,3.1751,3.1753,3.1756,3.1695,3.1748,3.1748,3.1748,3.1748,3.1748,0,3.1395,3.1414,3.1443,3.1479,3.1505,3.1506,3.1534,3.1555,3.1588,3.1613,3.164,3.1679,3.1712,3.1734,3.1767,3.1786,3.1789,3.1795,3.1795,3.1799,3.1757,3.1749,3.1792,3.1792,3.1792,3.1792,3.1792,3.1792,3.1422,3.1462,3.1473,3.1523,3.1541,3.1578,3.1594,3.1617,3.1637,3.1682,3.1709,3.1724,3.1748,3.1784,3.1814,3.182,3.1833,3.1839,3.1845,3.1806,3.1801,3.1797,3.1789,3.1841,3.1841,3.1885,3.1885,3.1886]}]]